DECAYED

COSMOS 2251 DEB, 37500 (Decayed)

Orbit data source: Space-Track

COSMOS 2251 DEB, 37500 was space debris in LEO originally from a launch on Wed, 16 Jun 1993 UTC launched from the Plesetsk Missile And Space Complex (PKMTR). The debris from Iridium 33, an American commercial communications satellite, has been tracked extensively since its accidental collision with the defunct Russian satellite Cosmos 2251 in 2009. This event, occurring at high speed in low Earth orbit (LEO), generated thousands of pieces of space debris, significantly increasing the risk of further collisions. The Iridium 33 debris cloud has impacted space traffic management and orbital debris mitigation strategies, making it a subject of ongoing study in space situational awareness.

Not visible in the next 10 days
Identifier
37500, 1993-036BMD
Orbit
Decayed
Country
Flag of CISCIS
Related business
Manufacturer
Unknown
Mission
Decayed spacecraft
Bus & Motor
Unknown
Mass
Unknown
Launch date (UTC)
1993-06-16 (33 years ago)
Launch vehicle
Unknown
Launch site
Plesetsk Missile And Space Complex (PKMTR)
Object type
Payload
Rocket body
Debris
Shape & HBR
Unknown shape, 0.1 m
Radar Cross Section
Small (<0.1 m²)

Expand to show TLE details & history
Last TLE update: 5 months ago

TLE from 5 months ago
0 COSMOS 2251 DEB
1 37500U 93036BMD 25235.90398696  .01197896  19365-5  55221-3 0  9991
2 37500  73.9317 106.3260 0016571 257.0411 102.8988 16.21341827880945
Epoch: 2025-08-23T21:41Z
TLE epoch observation values (Epoch: 2025-08-23T21:41:44.473Z)
Latitude
-0.00003°
Longitude
168.45862°
Altitude
221.193 km
Speed
7.773 km/s
True Right ascension
07h 05m 18s
True Declination
0° 00' 00"
Sunlit
Object was in daylight at epoch
Visualization orbit readout
Latitude
Unknown
Longitude
Unknown
Altitude
Unknown
Speed
Unknown
Apparent Right ascension
Unknown
Apparent Declination
Unknown
Sunlit
N/A
Visualization observer readout
Local Sidereal Time
00:18:23
Azimuth
Unknown
Elevation
Unknown
Doppler factor
Unknown
Orbital elements
Apogee altitude
224.267 km
Perigee altitude
202.421 km
Semi-major axis
6,591.481 km
Eccentricity
0.00166
Inclination
73.9317°
RAAN
106.326°
Arg. of periapsis
257.0411°
True anomaly
103.08381°
Mean anomaly
102.8988°
Eccentric anomaly
102.99131°
Mean motion
4.05573 °/min
Orbital period
88.76 mins
BSTAR
0.00055221
Loading maneuver chart data...
Computing Atmospheric mass density...

Documentation

Showing up to 5 results
|